Change the Weather History Date:

Saturday, August 31, 2013

  Actual Average Record
Temperature  
Mean Temperature 54 °F -  
Max Temperature 62 °F 64 °F 73 °F (2012)
Min Temperature 47 °F 47 °F 39 °F (2008)
Degree Days  
Heating Degree Days 10    
Growing Degree Days 4 (Base 50)    
Moisture  
Dew Point 38 °F    
Average Humidity 53    
Maximum Humidity 71    
Minimum Humidity 34    
Precipitation  
Precipitation 0.00 in - - ()
Sea Level Pressure  
Sea Level Pressure 29.95 in    
Wind  
Wind Speed 22 mph ()    
Max Wind Speed 34 mph    
Max Gust Speed 46 mph    
Visibility 7.4 miles    
Events      
Averages and records for this station are not official NWS values.
T = Trace of Precipitation, MM = Missing Value Source: Averaged Metar Reports

Daily Weather History Graph

Daily Weather History Graph

Search for Another Location

Airport or City:

Trip Planner

Search our weather history database for the weather conditions in past years. The results will help you decide how hot, cold, wet, or windy it might be!

Date:

Astronomy

Aug. 31, 2013 Rise Set
Actual Time 6:50 AM SAST 6:11 PM SAST
Civil Twilight 6:24 AM SAST 6:37 PM SAST
Nautical Twilight 5:55 AM SAST 7:06 PM SAST
Astronomical Twilight 5:27 AM SAST 7:35 PM SAST
Moon 3:15 AM SAST (8/31) 1:48 PM SAST (8/31)
Length of Visible Light 12h 12m
Length of Day
11h 21m
Waning Crescent, 23% of the Moon is Illuminated
Aug 31
Waning Crescent
Sep 5
New
Sep 12
First Quarter
Sep 19
Full
Sep 27
Last Quarter

Hourly Weather History & Observations

Time (SAST) Temp. Dew Point Humidity Pressure Visibility Wind Dir Wind Speed Gust Speed Precip Events Conditions
12:00 AM 51.8 °F 32.0 °F 47% 29.86 in - WNW 21.9 mph - N/A   Clear
1:00 AM 51.8 °F 33.8 °F 50% 29.86 in 6.2 mi WNW 20.7 mph - N/A   Partly Cloudy
2:00 AM 52 °F 33 °F 36% 29.87 in 37 mi WNW 21.9 mph - -  
2:00 AM 51.8 °F 33.8 °F 50% 29.86 in 6.2 mi WNW 23.0 mph 38.0 mph N/A   Scattered Clouds
3:00 AM 51.8 °F 33.8 °F 50% 29.83 in 6.2 mi WNW 25.3 mph 38.0 mph N/A   Scattered Clouds
4:00 AM 50.0 °F 33.8 °F 54% 29.83 in 6.2 mi WNW 24.2 mph - N/A   Partly Cloudy
5:00 AM 52 °F 35 °F 40% 29.86 in 12 mi WNW 26.5 mph - -   Partly Cloudy
5:00 AM 51.8 °F 35.6 °F 54% 29.83 in 6.2 mi WNW 26.5 mph 42.6 mph N/A   Scattered Clouds
6:00 AM 51.8 °F 35.6 °F 54% 29.86 in 6.2 mi WNW 27.6 mph 39.1 mph N/A   Scattered Clouds
7:00 AM 51.8 °F 35.6 °F 54% 29.86 in 6.2 mi WNW 25.3 mph - N/A   Partly Cloudy
8:00 AM 52 °F 36 °F 42% 29.93 in 12 mi WNW 24.2 mph - -   Scattered Clouds
8:00 AM 51.8 °F 35.6 °F 54% 29.92 in 6.2 mi WNW 24.2 mph - N/A   Partly Cloudy
9:00 AM 53.6 °F 37.4 °F 54% 29.95 in 6.2 mi WNW 27.6 mph - N/A   Scattered Clouds
10:00 AM 57.2 °F 39.2 °F 51% 29.95 in 6.2 mi WNW 25.3 mph 36.8 mph N/A   Scattered Clouds
11:00 AM 59 °F 39 °F 36% 29.97 in 12 mi West 28.8 mph - -   Mostly Cloudy
11:00 AM 59.0 °F 39.2 °F 48% 29.95 in 6.2 mi West 28.8 mph 46.0 mph N/A   Scattered Clouds
12:00 PM 59.0 °F 39.2 °F 48% 29.98 in 6.2 mi West 25.3 mph 40.3 mph N/A   Mostly Cloudy
1:00 PM 60.8 °F 39.2 °F 45% 29.95 in 6.2 mi West 34.5 mph 46.0 mph N/A   Mostly Cloudy
2:00 PM 62 °F 41 °F 34% 29.97 in 12 mi West 31.1 mph - -   Mostly Cloudy
2:00 PM 62.6 °F 41.0 °F 45% 29.95 in 6.2 mi West 31.1 mph 44.9 mph N/A   Mostly Cloudy
3:00 PM 60.8 °F 39.2 °F 45% 29.95 in 6.2 mi West 28.8 mph 40.3 mph N/A   Mostly Cloudy
4:00 PM 59.0 °F 41.0 °F 51% 29.98 in 6.2 mi West 27.6 mph 40.3 mph N/A   Mostly Cloudy
5:00 PM 55 °F 44 °F 57% 30.01 in 12 mi West 18.4 mph - -   Mostly Cloudy
5:00 PM 55.4 °F 44.6 °F 67% 30.01 in 6.2 mi West 18.4 mph - N/A   Mostly Cloudy
6:00 PM 53.6 °F 42.8 °F 67% 30.01 in 6.2 mi West 19.6 mph - N/A   Mostly Cloudy
7:00 PM 53.6 °F 42.8 °F 67% 30.04 in 6.2 mi West 18.4 mph - N/A   Mostly Cloudy
8:00 PM 51 °F 42 °F 63% 30.07 in 12 mi WNW 16.1 mph - -   Partly Cloudy
8:00 PM 51.8 °F 42.8 °F 71% 30.06 in 6.2 mi WNW 16.1 mph - N/A   Scattered Clouds
9:00 PM 51.8 °F 41.0 °F 67% 30.06 in 6.2 mi West 20.7 mph - N/A   Partly Cloudy
10:00 PM 51.8 °F 41.0 °F 67% 30.06 in 6.2 mi West 20.7 mph - N/A   Mostly Cloudy
11:00 PM 51.8 °F 41.0 °F 67% 30.09 in 6.2 mi West 21.9 mph - N/A   Mostly Cloudy